Weather History for Pine Bluff, AR

Change the Weather History Date:

Monday, October 22, 2012

  Actual Average Record
Temperature  
Mean Temperature 70 °F 61 °F  
Max Temperature 81 °F 73 °F 92 °F (1934)
Min Temperature 58 °F 50 °F 32 °F (1976)
Degree Days  
Heating Degree Days 0 5  
Month to date heating degree days 80 66  
Since 1 July heating degree days 82 77  
Cooling Degree Days 5 2  
Month to date cooling degree days 44 63  
Year to date cooling degree days 2366 2107  
Growing Degree Days 20 (Base 50)    
Moisture  
Dew Point 57 °F    
Average Humidity 65    
Maximum Humidity 90    
Minimum Humidity 39    
Precipitation  
Precipitation 0.00 in 0.19 in 2.47 in (1957)
Month to date precipitation 1.78 3.53  
Year to date precipitation 37.86 39.41  
Snow  
Snow 0.00 in 0.00 in - ()
Month to date snowfall 0.0 0.0  
Since 1 July snowfall 0.0 0.0  
Since 1 September snowfall 0.0 0.0  
Snow Depth 0.00 in    
Sea Level Pressure  
Sea Level Pressure 30.04 in    
Wind  
Wind Speed 7 mph (South)    
Max Wind Speed 17 mph    
Max Gust Speed 22 mph    
Visibility 10 miles    
Events      
T = Trace of Precipitation, MM = Missing Value Source: NWS Daily Summary

Daily Weather History Graph

Daily Weather History Graph

Search for Another Location

Airport:

Trip Planner

Search our weather history database for the weather conditions in past years. The results will help you decide how hot, cold, wet, or windy it might be!

Date:

Astronomy

Oct. 22, 2012 Rise Set
Actual Time 7:19 AM CDT 6:24 PM CDT
Civil Twilight 6:53 AM CDT 6:50 PM CDT
Nautical Twilight 6:24 AM CDT 7:19 PM CDT
Astronomical Twilight 5:55 AM CDT 7:48 PM CDT
Moon 2:16 PM CDT (10/22) 12:24 AM CDT (10/22)
Length of Visible Light 11h 56m
Length of Day
11h 05m
First Quarter, 56% of the Moon is Illuminated
Oct 22
First Quarter
Oct 29
Full
Nov 6
Last Quarter
Nov 13
New
Nov 20
First Quarter

Hourly Weather History & Observations

Time (CDT) Temp. Heat Index Dew Point Humidity Pressure Visibility Wind Dir Wind Speed Gust Speed Precip Events Conditions
12:53 AM 64.9 °F - 53.1 °F 65% 30.01 in 10.0 mi South 4.6 mph - N/A   Clear
1:53 AM 64.9 °F - 54.0 °F 68% 30.01 in 10.0 mi South 6.9 mph - N/A   Clear
2:53 AM 64.0 °F - 55.0 °F 73% 30.01 in 10.0 mi South 6.9 mph - N/A   Clear
3:53 AM 62.1 °F - 55.0 °F 78% 30.02 in 10.0 mi SSW 5.8 mph - N/A   Clear
4:53 AM 62.1 °F - 55.9 °F 80% 30.02 in 10.0 mi South 6.9 mph - N/A   Clear
5:53 AM 61.0 °F - 55.9 °F 83% 30.04 in 10.0 mi South 5.8 mph - N/A   Scattered Clouds
6:53 AM 60.8 °F - 57.2 °F 88% 30.06 in 10.0 mi South 5.8 mph - N/A   Clear
7:53 AM 61.0 °F - 57.9 °F 90% 30.08 in 10.0 mi SSE 5.8 mph - N/A   Clear
8:53 AM 64.9 °F - 60.1 °F 84% 30.10 in 10.0 mi South 8.1 mph - N/A   Clear
9:53 AM 69.1 °F - 62.1 °F 78% 30.11 in 10.0 mi SSW 9.2 mph - N/A   Clear
10:53 AM 73.0 °F - 63.0 °F 71% 30.10 in 10.0 mi South 9.2 mph - N/A   Clear
11:53 AM 75.9 °F - 57.9 °F 54% 30.10 in 10.0 mi SSW 16.1 mph - N/A   Clear
12:53 PM 79.0 °F - 57.0 °F 47% 30.07 in 10.0 mi South 16.1 mph 20.7 mph N/A   Clear
1:53 PM 80.1 °F 80.2 °F 55.9 °F 43% 30.05 in 10.0 mi South 11.5 mph - N/A   Clear
2:53 PM 80.1 °F 80.0 °F 54.0 °F 40% 30.03 in 10.0 mi South 10.4 mph - N/A   Clear
3:53 PM 81.0 °F 80.7 °F 55.0 °F 41% 30.02 in 10.0 mi South 12.7 mph - N/A   Clear
4:53 PM 80.1 °F 80.0 °F 54.0 °F 40% 30.02 in 10.0 mi South 9.2 mph - N/A   Clear
5:53 PM 77.0 °F - 57.0 °F 50% 30.02 in 10.0 mi South 3.5 mph - N/A   Clear
6:53 PM 68.0 °F - 57.9 °F 70% 30.02 in 10.0 mi SE 5.8 mph - N/A   Clear
7:53 PM 64.9 °F - 57.9 °F 78% 30.03 in 10.0 mi SE 3.5 mph - N/A   Clear
8:53 PM 64.0 °F - 57.9 °F 80% 30.03 in 10.0 mi ESE 3.5 mph - N/A   Clear
9:53 PM 61.0 °F - 57.0 °F 87% 30.02 in 10.0 mi Calm Calm - N/A   Clear
10:53 PM 62.1 °F - 57.0 °F 84% 30.03 in 10.0 mi Calm Calm - N/A   Clear